Weather History for Harlan, KY

Change the Weather History Date:

Sunday, December 30, 2012

  Actual Average (KLOZ) Record (KLOZ)
Temperature  
Mean Temperature 30 °F 36 °F  
Max Temperature 35 °F 45 °F 70 °F (1990)
Min Temperature 26 °F 27 °F -1 °F (1983)
Degree Days  
Heating Degree Days 34 29  
Month to date heating degree days 793  
Since 1 July heating degree days 1623  
Cooling Degree Days 0 0  
Month to date cooling degree days 0  
Year to date cooling degree days 1190  
Moisture  
Dew Point 21 °F    
Average Humidity 73    
Maximum Humidity 93    
Minimum Humidity 56    
Precipitation  
Precipitation 0.00 in 0.12 in 1.96 in (1969)
Month to date precipitation 4.12  
Year to date precipitation 47.02  
Sea Level Pressure  
Sea Level Pressure 30.36 in    
Wind  
Wind Speed 7 mph (West)    
Max Wind Speed 16 mph    
Max Gust Speed 23 mph    
Visibility 10 miles    
Events      
T = Trace of Precipitation, MM = Missing Value Source: NWS Daily Summary

Daily Weather History Graph

Daily Weather History Graph

Search for Another Location

Airport:

Trip Planner

Search our weather history database for the weather conditions in past years. The results will help you decide how hot, cold, wet, or windy it might be!

Date:

Astronomy

Dec. 30, 2012 Rise Set
Actual Time 7:46 AM EST 5:26 PM EST
Civil Twilight 7:17 AM EST 5:55 PM EST
Nautical Twilight 6:44 AM EST 6:27 PM EST
Astronomical Twilight 6:13 AM EST 6:59 PM EST
Moon 7:52 PM EST (12/30) 8:57 AM EST (12/30)
Length of Visible Light 10h 38m
Length of Day
9h 40m
Waning Gibbous, 95% of the Moon is Illuminated
Dec 30
Waning Gibbous
Jan 4
Last Quarter
Jan 11
New
Jan 18
First Quarter
Jan 26
Full

Hourly Weather History & Observations

Time (EST) Temp. Windchill Dew Point Humidity Pressure Visibility Wind Dir Wind Speed Gust Speed Precip Events Conditions
12:15 AM 28.4 °F 19.1 °F 21.2 °F 74% 30.19 in 10.0 mi WNW 10.4 mph 16.1 mph N/A   Overcast
12:35 AM 28.4 °F 16.6 °F 21.2 °F 74% 30.19 in 10.0 mi WNW 16.1 mph 23.0 mph N/A   Overcast
12:55 AM 28.4 °F 21.2 °F 21.2 °F 74% 30.20 in 10.0 mi West 6.9 mph - N/A   Overcast
1:15 AM 28.4 °F 16.6 °F 21.2 °F 74% 30.19 in 10.0 mi WNW 16.1 mph 23.0 mph N/A   Overcast
1:35 AM 28.4 °F 17.0 °F 21.2 °F 74% 30.20 in 10.0 mi WNW 15.0 mph - N/A   Overcast
1:55 AM 28.4 °F 22.2 °F 21.2 °F 74% 30.21 in 10.0 mi West 5.8 mph - N/A   Overcast
2:15 AM 28.4 °F 17.5 °F 23.0 °F 80% 30.23 in 10.0 mi NW 13.8 mph 18.4 mph N/A   Overcast
2:35 AM 28.4 °F 18.5 °F 21.2 °F 74% 30.24 in 10.0 mi WNW 11.5 mph 16.1 mph N/A   Overcast
2:55 AM 26.6 °F 15.7 °F 19.4 °F 74% 30.26 in 10.0 mi WNW 12.7 mph 23.0 mph N/A   Overcast
3:15 AM 26.6 °F 16.8 °F 19.4 °F 74% 30.27 in 10.0 mi West 10.4 mph - N/A   Overcast
3:35 AM 26.6 °F 19.1 °F 19.4 °F 74% 30.28 in 10.0 mi West 6.9 mph - N/A   Overcast
3:55 AM 26.6 °F 19.1 °F 19.4 °F 74% 30.29 in 10.0 mi West 6.9 mph - N/A   Overcast
4:15 AM 26.6 °F 19.1 °F 19.4 °F 74% 30.30 in 10.0 mi West 6.9 mph - N/A   Overcast
4:35 AM 26.6 °F 19.1 °F 19.4 °F 74% 30.30 in 10.0 mi WNW 6.9 mph - N/A   Overcast
4:55 AM 26.6 °F 18.2 °F 19.4 °F 74% 30.30 in 10.0 mi WNW 8.1 mph - N/A   Overcast
5:15 AM 26.6 °F 19.1 °F 19.4 °F 74% 30.31 in 10.0 mi West 6.9 mph - N/A   Overcast
5:35 AM 26.6 °F 18.2 °F 19.4 °F 74% 30.32 in 10.0 mi West 8.1 mph - N/A   Overcast
5:55 AM 26.6 °F 16.8 °F 19.4 °F 74% 30.33 in 10.0 mi West 10.4 mph - N/A   Overcast
6:15 AM 26.6 °F 19.1 °F 19.4 °F 74% 30.34 in 10.0 mi West 6.9 mph - N/A   Overcast
6:35 AM 26.6 °F 18.2 °F 19.4 °F 74% 30.36 in 10.0 mi West 8.1 mph - N/A   Overcast
6:55 AM 26.6 °F 20.0 °F 19.4 °F 74% 30.37 in 10.0 mi WSW 5.8 mph - N/A   Overcast
7:35 AM 26.6 °F 21.2 °F 19.4 °F 74% 30.38 in 10.0 mi West 4.6 mph - N/A   Overcast
7:55 AM 26.6 °F - 19.4 °F 74% 30.39 in 10.0 mi Calm Calm - N/A   Overcast
8:15 AM 26.6 °F - 19.4 °F 74% 30.40 in 10.0 mi Calm Calm - N/A   Overcast
8:35 AM 26.6 °F 22.6 °F 19.4 °F 74% 30.40 in 10.0 mi West 3.5 mph - N/A   Overcast
8:55 AM 26.6 °F 22.6 °F 19.4 °F 74% 30.41 in 10.0 mi NNW 3.5 mph - N/A   Overcast
9:15 AM 26.6 °F 22.6 °F 19.4 °F 74% 30.42 in 10.0 mi West 3.5 mph - N/A   Overcast
9:35 AM 26.6 °F 22.6 °F 19.4 °F 74% 30.42 in 10.0 mi WNW 3.5 mph - N/A   Overcast
9:55 AM 26.6 °F - 19.4 °F 74% 30.43 in 10.0 mi Calm Calm - N/A   Overcast
10:15 AM 28.4 °F 24.6 °F 19.4 °F 69% 30.42 in 10.0 mi WSW 3.5 mph - N/A   Overcast
10:35 AM 28.4 °F - 19.4 °F 69% 30.43 in 10.0 mi Calm Calm - N/A   Overcast
10:55 AM 28.4 °F 24.6 °F 19.4 °F 69% 30.44 in 10.0 mi WNW 3.5 mph - N/A   Overcast
11:15 AM 30.2 °F - 19.4 °F 64% 30.43 in 10.0 mi Calm Calm - N/A   Overcast
11:35 AM 30.2 °F 25.4 °F 21.2 °F 69% 30.44 in 10.0 mi SW 4.6 mph - N/A   Overcast
11:55 AM 32.0 °F 28.7 °F 21.2 °F 64% 30.44 in 10.0 mi West 3.5 mph - N/A   Overcast
12:15 PM 32.0 °F - 21.2 °F 64% 30.43 in 10.0 mi Calm Calm - N/A   Overcast
12:35 PM 32.0 °F 28.7 °F 21.2 °F 64% 30.43 in 10.0 mi West 3.5 mph - N/A   Mostly Cloudy
12:55 PM 32.0 °F 24.2 °F 23.0 °F 69% 30.43 in 10.0 mi West 9.2 mph - N/A   Scattered Clouds
1:15 PM 32.0 °F 27.5 °F 21.2 °F 64% 30.42 in 10.0 mi SW 4.6 mph - N/A   Clear
1:35 PM 33.8 °F 28.6 °F 23.0 °F 65% 30.41 in 10.0 mi SW 5.8 mph - N/A   Clear
1:55 PM 33.8 °F 29.6 °F 21.2 °F 60% 30.40 in 10.0 mi SW 4.6 mph - N/A   Clear
2:15 PM 33.8 °F - 21.2 °F 60% 30.39 in 10.0 mi Calm Calm - N/A   Clear
2:35 PM 33.8 °F - 23.0 °F 65% 30.37 in 10.0 mi Calm Calm - N/A   Clear
2:55 PM 33.8 °F - 21.2 °F 60% 30.37 in 10.0 mi Calm Calm - N/A   Clear
3:15 PM 33.8 °F 30.8 °F 23.0 °F 65% 30.36 in 10.0 mi ESE 3.5 mph - N/A   Clear
3:35 PM 35.6 °F - 21.2 °F 56% 30.36 in 10.0 mi Calm Calm - N/A   Clear
3:55 PM 33.8 °F - 21.2 °F 60% 30.37 in 10.0 mi Calm Calm - N/A   Clear
4:15 PM 35.6 °F 32.8 °F 21.2 °F 56% 30.38 in 10.0 mi WSW 3.5 mph - N/A   Clear
4:35 PM 33.8 °F 29.6 °F 21.2 °F 60% 30.39 in 10.0 mi West 4.6 mph - N/A   Clear
4:55 PM 33.8 °F 30.8 °F 21.2 °F 60% 30.40 in 10.0 mi West 3.5 mph - N/A   Clear
5:15 PM 32.0 °F - 23.0 °F 69% 30.40 in 10.0 mi Calm Calm - N/A   Clear
5:35 PM 32.0 °F - 23.0 °F 69% 30.40 in 10.0 mi Calm Calm - N/A   Clear
5:55 PM 32.0 °F 28.7 °F 23.0 °F 69% 30.42 in 10.0 mi West 3.5 mph - N/A   Clear
6:15 PM 32.0 °F 27.5 °F 23.0 °F 69% 30.41 in 10.0 mi ESE 4.6 mph - N/A   Clear
6:35 PM 32.0 °F 24.8 °F 21.2 °F 64% 30.40 in 10.0 mi East 8.1 mph - N/A   Clear
6:55 PM 30.2 °F - 23.0 °F 75% 30.40 in 10.0 mi Calm Calm - N/A   Clear
7:15 PM 30.2 °F - 23.0 °F 75% 30.39 in 10.0 mi Calm Calm - N/A   Clear
7:35 PM 30.2 °F 25.4 °F 23.0 °F 75% 30.40 in 10.0 mi East 4.6 mph - N/A   Clear
7:55 PM 30.2 °F - 23.0 °F 75% 30.40 in 10.0 mi Calm Calm - N/A   Clear
8:15 PM 30.2 °F - 23.0 °F 75% 30.40 in 10.0 mi Calm Calm - N/A   Clear
8:35 PM 28.4 °F - 24.8 °F 86% 30.38 in 10.0 mi Calm Calm - N/A   Clear
8:55 PM 28.4 °F - 24.8 °F 86% 30.38 in 10.0 mi Calm Calm - N/A   Clear
9:15 PM 28.4 °F - 24.8 °F 86% 30.38 in 10.0 mi Calm Calm - N/A   Clear
9:35 PM 28.4 °F - 23.0 °F 80% 30.37 in 10.0 mi Calm Calm - N/A   Clear
9:55 PM 28.4 °F - 24.8 °F 86% 30.37 in 10.0 mi Calm Calm - N/A   Clear
10:15 PM 28.4 °F - 23.0 °F 80% 30.37 in 10.0 mi Calm Calm - N/A   Clear
10:35 PM 26.6 °F - 24.8 °F 93% 30.37 in 10.0 mi Calm Calm - N/A   Clear
10:55 PM 26.6 °F - 24.8 °F 93% 30.37 in 10.0 mi Calm Calm - N/A   Clear
11:15 PM 28.4 °F - 23.0 °F 80% 30.37 in 10.0 mi Calm Calm - N/A   Clear
11:35 PM 26.6 °F - 24.8 °F 93% 30.37 in 10.0 mi Calm Calm - N/A   Clear
11:55 PM 26.6 °F 22.6 °F 24.8 °F 93% 30.36 in 10.0 mi ENE 3.5 mph - N/A   Clear